Jackson, MS

11:14 AM CDT on May 26, 2018 (GMT -0500)
Jackson-Evers International

Weather History for KJAN - April, 2013

Change the Weather History Date:

Tuesday, April 9, 2013

  Actual Average Record
Temperature  
Mean Temperature 78 °F 62 °F  
Max Temperature 87 °F 74 °F 89 °F (1908)
Min Temperature 68 °F 50 °F 33 °F (2000)
Degree Days  
Heating Degree Days 0 5  
Month to date heating degree days 50 49  
Since 1 July heating degree days 2193 2319  
Cooling Degree Days 13 2  
Month to date cooling degree days 18 18  
Year to date cooling degree days 35 55  
Growing Degree Days 28 (Base 50)    
Moisture  
Dew Point 65 °F    
Average Humidity 68    
Maximum Humidity 87    
Minimum Humidity 48    
Precipitation  
Precipitation T in 0.18 in 2.83 in (1943)
Month to date precipitation 0.41 1.60  
Year to date precipitation 23.44 16.37  
Sea Level Pressure  
Sea Level Pressure 29.95 in    
Wind  
Wind Speed 14 mph (SSE)    
Max Wind Speed 30 mph    
Max Gust Speed 37 mph    
Visibility 9 miles    
Events Rain , Thunderstorm    
T = Trace of Precipitation, MM = Missing Value Source: NWS Daily Summary

Daily Weather History Graph

Daily Weather History Graph

Search for Another Location

Airport or City:

Astronomy

Apr. 09, 2013 Rise Set
Actual Time 6:38 AM CDT 7:25 PM CDT
Civil Twilight 6:13 AM CDT 7:50 PM CDT
Nautical Twilight 5:43 AM CDT 8:20 PM CDT
Astronomical Twilight 5:13 AM CDT 8:50 PM CDT
Moon 5:59 AM CDT (4/9) 7:01 PM CDT (4/9)
Length of Visible Light 13h 37m
Length of Day
12h 47m
Waning Crescent, 1% of the Moon is Illuminated
Apr 9
Waning Crescent
Apr 10
New
Apr 18
First Quarter
Apr 25
Full
May 2
Last Quarter

Hourly Weather History & Observations

Time (CDT) Temp. Heat Index Dew Point Humidity Pressure Visibility Wind Dir Wind Speed Gust Speed Precip Events Conditions
12:50 AM 69.8 °F - 62.6 °F 78% 29.96 in 10.0 mi SSE 9.2 mph - N/A   Overcast
12:54 AM 70.0 °F - 63.0 °F 78% 29.95 in 10.0 mi SSE 10.4 mph - N/A   Overcast
1:38 AM 69.8 °F - 64.4 °F 83% 29.95 in 10.0 mi SSE 8.1 mph - N/A   Overcast
1:54 AM 70.0 °F - 64.0 °F 81% 29.94 in 10.0 mi SSE 8.1 mph - N/A   Overcast
2:54 AM 70.0 °F - 63.0 °F 78% 29.92 in 9.0 mi SSE 8.1 mph - N/A   Overcast
3:09 AM 69.8 °F - 62.6 °F 78% 29.93 in 8.0 mi SSE 8.1 mph - N/A   Overcast
3:54 AM 69.1 °F - 63.0 °F 81% 29.91 in 8.0 mi SSE 6.9 mph - N/A   Overcast
4:54 AM 68.0 °F - 64.0 °F 87% 29.91 in 8.0 mi SE 5.8 mph - N/A   Overcast
5:36 AM 69.8 °F - 64.4 °F 83% 29.93 in 8.0 mi South 6.9 mph - 0.00 in   Overcast
5:45 AM 69.8 °F - 64.4 °F 83% 29.93 in 8.0 mi SSE 8.1 mph - 0.00 in Thunderstorm Thunderstorm
5:54 AM 68.0 °F - 64.9 °F 90% 29.92 in 8.0 mi SSE 8.1 mph - 0.00 in Thunderstorm Thunderstorm
6:11 AM 68.0 °F - 64.4 °F 88% 29.94 in 8.0 mi SE 9.2 mph - N/A Thunderstorm Thunderstorm
6:47 AM 69.8 °F - 64.4 °F 83% 29.95 in 9.0 mi SSE 10.4 mph 18.4 mph N/A   Mostly Cloudy
6:54 AM 69.1 °F - 64.9 °F 87% 29.95 in 8.0 mi SSE 6.9 mph - N/A   Mostly Cloudy
7:01 AM 69.8 °F - 64.4 °F 83% 29.96 in 8.0 mi SE 8.1 mph - N/A   Mostly Cloudy
7:39 AM 69.8 °F - 66.2 °F 88% 29.97 in 8.0 mi ESE 9.2 mph - 0.00 in Rain Light Rain
7:54 AM 69.1 °F - 66.0 °F 90% 29.97 in 7.0 mi SSE 5.8 mph - 0.00 in Rain Light Rain
8:54 AM 70.0 °F - 66.0 °F 87% 29.99 in 8.0 mi SE 8.1 mph - 0.00 in   Overcast
9:12 AM 71.6 °F - 66.2 °F 83% 30.00 in 8.0 mi SE 9.2 mph - N/A   Mostly Cloudy
9:54 AM 73.9 °F - 66.9 °F 79% 29.99 in 10.0 mi SE 13.8 mph - N/A   Mostly Cloudy
10:28 AM 75.2 °F - 66.2 °F 73% 30.01 in 10.0 mi SSE 10.4 mph - N/A   Mostly Cloudy
10:54 AM 75.9 °F - 66.0 °F 71% 30.01 in 10.0 mi South 15.0 mph 25.3 mph N/A   Overcast
11:54 AM 78.1 °F - 66.9 °F 68% 30.00 in 10.0 mi South 13.8 mph - N/A   Mostly Cloudy
12:01 PM 78.8 °F - 68.0 °F 69% 30.01 in 10.0 mi SSE 12.7 mph 24.2 mph N/A   Mostly Cloudy
12:21 PM 78.8 °F - 66.2 °F 65% 30.01 in 10.0 mi South 19.6 mph 28.8 mph N/A   Overcast
12:54 PM 82.0 °F 84.5 °F 66.9 °F 60% 29.98 in 10.0 mi SSE 19.6 mph 33.4 mph N/A   Mostly Cloudy
1:54 PM 82.9 °F 85.0 °F 66.0 °F 56% 29.96 in 10.0 mi SSE 20.7 mph 27.6 mph N/A   Mostly Cloudy
2:54 PM 86.0 °F 87.6 °F 64.9 °F 49% 29.94 in 10.0 mi SSE 21.9 mph 28.8 mph N/A   Scattered Clouds
3:54 PM 82.9 °F 84.6 °F 64.9 °F 54% 29.92 in 10.0 mi SSE 21.9 mph 32.2 mph N/A   Scattered Clouds
4:54 PM 84.9 °F 87.1 °F 66.0 °F 53% 29.92 in 10.0 mi South 16.1 mph 27.6 mph N/A   Scattered Clouds
5:54 PM 82.0 °F 84.1 °F 66.0 °F 58% 29.94 in 10.0 mi SSE 17.3 mph 24.2 mph N/A   Mostly Cloudy
6:54 PM 80.1 °F 82.1 °F 66.0 °F 62% 29.95 in 10.0 mi SSE 16.1 mph 25.3 mph N/A   Partly Cloudy
7:54 PM 77.0 °F - 66.0 °F 69% 29.95 in 10.0 mi SSE 21.9 mph 26.5 mph N/A   Partly Cloudy
8:54 PM 75.0 °F - 66.0 °F 73% 29.95 in 10.0 mi SSE 18.4 mph 25.3 mph N/A   Clear
9:54 PM 73.9 °F - 66.0 °F 76% 29.91 in 9.0 mi SE 25.3 mph 36.8 mph N/A   Clear
10:18 PM 73.4 °F - 66.2 °F 78% 29.98 in 9.0 mi South 19.6 mph 27.6 mph N/A   Mostly Cloudy
10:54 PM 73.9 °F - 66.9 °F 79% 29.97 in 9.0 mi South 15.0 mph - N/A   Overcast
11:54 PM 73.9 °F - 66.9 °F 79% 29.96 in 9.0 mi South 12.7 mph - N/A   Overcast